Погода в Буревестнике

Россия / Сахалинская область     44°55′20″N   147°37′36″E
темп.,
°C
ветер,
м/с
пор.,
м/с
влажн.,
%
обл.,
%
осадки,
мм/ч
давл.,
гПа
погр.,
м
14 июня, пн
пн1423:00+11ссз229098 0.0 100821
02:00+11ссз33883 0.0 100829
05:00+10ссз339333 0.0 100836
08:00+12ссз338115 0.0 1009111
11:00+13юз037440 0.0 1009328
14:00+13зюз027771 0.1 1009351
17:00+12сз127970 0.1 1009285
20:00+10ссз338512 0.0 1010114
15 июня, вт
вт1523:00+7ссз239312 0.0 101166
02:00+6с129730 0.0 101151
05:00+6ссз229738 0.0 101160
08:00+9с118746 0.0 1011194
11:00+11зюз027949 0.0 1012353
14:00+11ю227854 0.0 1012379
17:00+10юв228392 0.0 1013343
20:00+8юв229160 0.0 1013159
16 июня, ср
ср1623:00+7юв129665 0.0 101463
02:00+6юв229572 0.0 101375
05:00+6юв2294100 0.1 101496
08:00+7ююв228997 0.0 1015233
11:00+10ю227879 0.0 1014395
14:00+11ююз327543 0.0 1014457
17:00+11юз217766 0.0 1014366
20:00+8зюз118772 0.0 1015100
17 июня, чт
чт1723:00+6ю339319 0.0 101559
02:00+5ю249315 0.0 101472
05:00+5ююв349414 0.0 101465
08:00+7ююв34830 0.0 1015179
11:00+10ююв457432 0.0 1015297
14:00+10ююв447231 0.0 1014338
17:00+10ююв447832 0.0 1014256
20:00+7ююв349345 0.0 1014124
18 июня, пт
пт1823:00+6ююв349774 0.0 101490
02:00+6юв359879 0.0 101498
05:00+6юв349877 0.0 101395
08:00+8юв459379 0.0 1014151
11:00+11юв4582100 0.0 1013303
14:00+11юв568089 0.0 1012338
17:00+9юв5684100 0.0 1012272
20:00+8вюв458545 0.0 1012126